Weather Roundup
Issued by NWS Chicago, IL

Home | Current Version | Previous Version | Graphics & Text | Print | Product List | Glossary On
Versions: 1 2 3 4 5 6 7 8 9 10 11 12 13 14 15 16 17 18 19 20 21 22 23 24 25 26 27 28 29 30 31 32 33 34 35 36 37 38 39 40 41 42 43 44 45 46 47 48 49 50
000
NZUS59 KLOT 281802
HRRLOT

CHICAGO AREA WEATHER ROUNDUP
NATIONAL WEATHER SERVICE CHICAGO/ROMEOVILLE IL
100 PM CDT TUE APR 28 2015

NOTE: "FAIR" INDICATES FEW OR NO CLOUDS BELOW 12,000 FEET WITH NO
SIGNIFICANT WEATHER AND/OR OBSTRUCTIONS TO VISIBILITY.

* THESE STATIONS ARE NOT UNDER NWS QUALITY CONTROL. THEY ALSO MAY NOT
  REPORT WEATHER SUCH AS PRECIPITATION OR FOG.

ILZ005-006-012>014-019>023-281900-
NORTHEAST ILLINOIS

CITY           SKY/WX    TMP DP  RH WIND       PRES   REMARKS
OHARE          MOSUNNY   56  35  45 VRB6      30.10F
6HR MIN TEMP:  39; 6HR MAX TEMP:  57;

MIDWAY         MOSUNNY   59  35  40 E14       30.10F
6HR MIN TEMP:  43; 6HR MAX TEMP:  60;

AURORA         SUNNY     60  37  42 N5        30.09F
6HR MIN TEMP:  35; 6HR MAX TEMP:  61;

WAUKEGAN       SUNNY     48  36  63 NE13      30.11F
6HR MIN TEMP:  38; 6HR MAX TEMP:  50;

DUPAGE AIRPORT SUNNY     60  37  42 NE6       30.08F
6HR MIN TEMP:  37; 6HR MAX TEMP:  60;

WHEELING       SUNNY     52  35  52 E7        30.13F
6HR MIN TEMP:  37; 6HR MAX TEMP:  53;

NORTHERLY IS     N/A     46  39  76 NE10        N/A
$$

WIZ051-052-058>065-066-070>072-281900-
SOUTHEAST WISCONSIN

CITY           SKY/WX    TMP DP  RH WIND       PRES   REMARKS
MILWAUKEE      MOSUNNY   49  37  63 NE13      30.13F
6HR MIN TEMP:  41; 6HR MAX TEMP:  50;

KENOSHA*       SUNNY     55  39  54 NE12      30.11F
RACINE*        SUNNY     50  36  58 NE12      30.14F
WAUKESHA       MOSUNNY   55  36  47 N12       30.11F
$$

INZ001>003-010>013-019-020-281900-
NORTHWEST INDIANA

CITY           SKY/WX    TMP DP  RH WIND       PRES   REMARKS
GARY*          SUNNY     52  36  54 NE10      30.15
MICHIGAN CITY* NOT AVBL
RENSSELAER*    NOT AVBL
$$

LMZ740>746-281900-
SOUTHERN LAKE MICHIGAN

STATION/POSITION TIME  SKY/WX   TEMP WIND        PRES    VSBY
                                AIR  DIR/SP/G
                 (UTC)          (F)  (DEG/KT/KT) (MB)    (MI)
HARRISON CRIB    1700            40  350/ 11/ 12   N/A
BURNHAM HARBOR   1800            46   20/  9/ 12   N/A
CALUMET HARBOR   1700            45  360/  8/ 11   N/A
BURNS HARBOR     1700            42   30/  6/  8 1021.3F
MICHIGAN CITY    1700            44  310/  6/  6   N/A
$$

ABBREVIATIONS USED IN REMARKS
   TC - TEMPERATURE IN CELSIUS
  WCI - WIND CHILL INDEX
   HX - HEAT INDEX
  VSB - VISIBILITY
$$



USA.gov is the U.S. government's official web portal to all federal, state and local government web resources and services.